Location: Isle of Man Observatory
(54.1776°N, 4.6264°W)
Time: 18:10:31
(UTC+02:00)

Envisat - Visible Passes

Search period start: 07 October 2022 00:00
Search period end: 17 October 2022 00:00
Orbit: 764 x 765 km, 98.2° (Epoch: 06 October)

Date Brightness Start Highest point End Pass type
(mag) Time Alt. Az. Time Alt. Az. Time Alt. Az.
07 Oct 5.8 05:10:55 10° NE 05:13:25 14° E 05:15:55 10° ESE visible
07 Oct 3.2 06:48:14 10° NNE 06:53:21 74° ESE 06:58:26 10° S visible
08 Oct 4.3 06:11:26 10° NNE 06:16:13 39° E 06:20:58 10° SSE visible
08 Oct 3.5 07:50:32 10° N 07:55:16 40° WNW 07:59:59 10° SW visible
09 Oct 5.4 05:35:02 10° NE 05:38:53 21° E 05:42:42 10° SE visible
09 Oct 2.9 07:13:21 10° NNE 07:18:27 73° WNW 07:23:31 10° SSW visible
10 Oct 6.0 05:00:05 10° ENE 05:01:21 11° E 05:02:37 10° E visible
10 Oct 3.5 06:36:23 10° NNE 06:41:26 61° E 06:46:28 10° S visible
11 Oct 4.7 05:59:41 10° NNE 06:04:15 32° E 06:08:47 10° SSE visible
11 Oct 3.2 07:38:34 10° N 07:43:28 48° WNW 07:48:20 10° SW visible
12 Oct 5.6 05:23:30 10° NE 05:26:52 17° E 05:30:11 10° SE visible
12 Oct 3.0 07:01:27 10° NNE 07:06:34 88° WNW 07:11:40 10° SSW visible
13 Oct 3.9 06:24:33 10° NNE 06:29:31 50° E 06:34:27 10° S visible
13 Oct 3.7 08:03:53 10° N 08:08:23 33° WNW 08:12:52 10° WSW visible
14 Oct 5.0 05:47:58 10° NE 05:52:16 27° E 05:56:31 10° SSE visible
14 Oct 3.1 07:26:37 10° N 07:31:38 58° WNW 07:36:36 10° SW visible
15 Oct 5.8 05:12:07 10° NE 05:14:48 14° E 05:17:28 10° ESE visible
15 Oct 3.1 06:49:34 10° NNE 06:54:42 77° ESE 06:59:46 10° S visible
16 Oct 4.3 06:12:45 10° NNE 06:17:34 41° E 06:22:21 10° SSE visible
16 Oct 3.5 07:51:53 10° N 07:56:35 39° WNW 08:01:15 10° SW visible
